weather.gov     
National Weather Service

Terminal Aerodrome Forecast
NWS Homepage
This page is being discontinued on March 12, 2014.
The same data is available at this site. Please update your bookmarks.
Thank you, and we apologize for the inconvenience.
Please send an email to SR-SRH.Webmaster@noaa.gov with any concerns.


Current Version
Previous Version:    01  02  03  04  05  06  07  08  09  10  11  12  13  14  15  16  17  18  19  20  21  22  23  24  25  26  27  28  29  30  
   31  
[Printable]
708
FTUS42 KCHS 231900 AAA
TAFSAV
TAF AMD
KSAV 231917Z 2319/2418 13010KT 4SM BR VCSH SCT003 BKN005
     FM232100 13010KT 6SM BR VCSH SCT005 BKN012
     FM240300 16011G16KT 6SM BR SCT004 OVC010
     FM240800 20010KT 2SM BR SCT003 OVC007
     FM241500 21012KT 6SM BR SCT007 BKN015=


U.S. Dept. of Commerce
NOAA National Weather Service
1325 East West Highway
Silver Spring, MD 20910
E-mail: w-nws.webmaster@noaa.gov
Page last modified: May 16, 2007
NATIONAL WEATHER SERVICE: for Safety, for Work, for Fun - FOR LIFE